Dewpoint
60 60 60 60 60 60 60 60 60 61 61 61 61 61 61 61 59 34 30 46 54 77 73 45 51 49 47 47 41 44 41 35 38 41 45 46 47 48 47 48 49 50 52 53 54
59 59 60 59 60 60 60 60 60 60 61 61 61 61 61 61 46 27 60 72 68 71 42 41 37 38 38 38 34 40 40 37 38 39 43 46 48 49 48 51 51 50 52 54 55
59 59 59 59 59 59 59 59 60 60 60 60 61 61 61 59 39 20 67 70 70 64 41 42 37 35 37 40 33 33 34 38 38 41 41 44 45 47 50 48 50 50 53 53 54
59 59 58 58 58 58 58 59 59 59 59 60 60 61 61 50 23 28 64 65 70 40 34 39 38 35 36 38 33 36 34 37 41 43 39 41 44 44 46 47 51 53 53 53 54
59 58 58 58 58 58 58 58 59 59 59 59 60 61 51 39 23 28 66 57 40 36 35 38 37 36 35 37 34 37 32 36 41 43 41 42 43 46 46 49 52 54 53 52 53
58 58 58 58 58 58 58 58 58 58 58 59 60 61 48 29 12 19 19 24 29 37 38 40 38 37 36 36 33 37 31 36 37 41 41 42 44 48 48 51 53 53 52 51 51
57 57 57 57 57 57 57 57 57 57 59 61 61 55 40 30 17 10 17 18 25 37 39 40 37 37 36 35 37 33 31 36 34 38 42 48 48 47 50 52 52 52 52 50 50
56 56 56 57 57 57 57 56 56 58 59 62 62 50 36 23 22 16 10 18 24 34 37 38 38 36 36 36 35 32 32 32 40 40 41 48 48 48 48 51 52 52 52 51 50
56 56 56 56 56 56 55 56 57 59 61 60 50 45 31 39 16 10 10 14 21 26 35 37 36 37 33 32 31 30 29 33 37 37 40 45 50 52 50 50 52 52 52 51 50
56 56 56 56 55 55 55 56 58 58 58 49 45 38 33 22 10 9 6 6 18 25 33 36 33 31 31 30 30 38 39 37 35 34 33 32 51 53 52 49 51 52 53 54 50
55 55 55 55 55 54 52 48 48 46 44 33 33 22 21 19 23 21 13 10 18 22 28 31 30 31 30 30 31 30 39 39 41 33 31 32 34 42 49 47 50 51 54 52 52
55 55 55 55 54 54 52 47 39 39 37 36 32 29 25 26 23 13 14 12 18 18 23 24 25 27 29 28 28 28 27 26 33 40 39 32 31 44 45 47 47 50 52 53 54
54 54 54 54 53 51 46 42 40 39 35 34 27 24 24 25 21 11 10 12 12 15 15 18 21 24 23 24 25 27 26 28 28 41 40 35 32 34 41 50 51 46 50 53 54
54 54 54 53 49 44 39 43 39 40 35 28 23 22 20 20 17 17 12 12 12 12 11 13 16 17 18 18 23 24 26 26 27 29 32 29 28 40 49 50 49 50 46 50 54
54 54 53 53 48 42 43 39 40 40 32 26 20 26 22 16 15 14 12 9 10 10 11 13 13 11 13 16 19 22 25 25 24 24 27 26 25 42 48 47 54 54 55 46 52
53 53 53 49 50 43 39 39 39 32 27 20 20 19 18 14 15 14 9 10 11 8 6 3 5 5 6 10 14 16 18 19 22 25 25 24 22 29 45 50 53 54 61 57 50
52 52 51 49 41 42 40 38 32 28 25 20 14 13 14 12 13 14 9 7 6 7 6 5 2 2 5 5 7 11 12 15 19 21 20 20 20 38 45 47 48 46 52 46 47
51 50 51 48 41 39 39 36 35 19 19 19 13 13 10 10 8 10 9 5 6 4 2 6 5 0 3 5 8 9 12 15 22 17 15 19 22 38 44 45 45 46 39 40 46
50 50 49 50 47 41 39 32 26 23 23 20 18 12 11 9 10 10 10 7 6 4 8 7 6 4 4 4 6 7 13 13 9 9 10 14 41 42 42 39 38 31 40 47 45
49 49 45 43 41 41 36 35 31 25 25 21 20 19 16 12 11 11 14 13 10 8 7 7 13 10 8 5 4 3 5 9 11 18 17 12 33 38 43 42 41 34 44 48 49
50 48 42 37 39 38 32 30 24 23 25 23 24 24 21 16 14 13 12 13 10 8 9 5 6 12 14 11 9 5 4 8 10 12 14 12 33 38 42 39 37 32 46 47 50
47 43 40 35 34 34 30 28 31 20 23 25 30 29 24 19 14 13 15 17 13 15 16 11 5 11 10 12 10 7 7 4 8 19 17 17 24 31 35 37 37 33 39 43 45
49 42 41 36 35 33 30 27 26 20 25 23 25 26 29 26 19 19 22 28 22 22 26 22 12 11 13 9 11 8 7 7 9 7 23 17 28 36 35 39 33 28 40 50 45
49 38 38 36 37 38 36 28 27 26 26 26 28 29 28 29 27 25 21 27 27 29 54 36 13 14 13 18 18 15 13 11 6 12 13 13 23 37 34 38 42 46 45 50 52
48 42 43 35 32 31 33 35 29 28 28 31 32 32 31 30 27 26 25 25 27 45 30 21 20 21 22 23 17 17 14 11 14 13 14 16 21 36 37 35 44 47 52 46 53
42 44 48 40 39 40 35 35 34 30 32 27 31 30 30 32 32 36 26 26 28 30 28 24 26 25 23 23 23 20 22 15 11 11 15 15 17 35 35 35 47 46 45 48 57
43 43 40 41 36 34 33 34 33 33 35 35 38 29 30 37 43 41 39 36 32 32 34 29 30 34 29 28 27 26 27 34 31 15 12 17 21 24 32 32 29 37 45 48 55
Lifted_Index
12 13 13 13 13 13 13 14 14 14 13 13 13 13 13 13 11 8 6 6 6 4 2 2 1 -0 -1 -1 -1 -1 -1 -1 -2 -2 -2 -2 -2 -2 -2 -2 -2 -2 -1 -1 -1
13 13 13 13 13 13 13 13 14 14 14 13 13 13 13 13 11 8 6 6 6 4 3 2 2 1 -0 -1 -1 -1 -1 -1 -1 -2 -2 -2 -2 -2 -2 -2 -2 -2 -1 -1 -1
13 13 13 13 13 13 13 13 14 14 14 14 13 13 13 12 10 8 8 7 6 4 3 3 2 2 0 -0 -0 -0 -1 -1 -1 -1 -2 -3 -3 -3 -3 -3 -2 -2 -1 -1 -1
14 14 14 14 13 13 13 13 13 14 14 14 14 13 12 11 10 9 9 8 6 4 3 2 2 1 0 -0 -0 -0 -1 -1 -1 -1 -2 -2 -3 -3 -3 -3 -3 -2 -1 -1 -1
14 14 14 14 14 13 13 13 13 13 14 14 13 13 11 10 9 10 10 9 7 4 3 2 2 1 -0 -0 -0 -0 -1 -1 -1 -2 -2 -2 -2 -3 -3 -3 -3 -2 -1 -1 -1
14 14 14 14 14 14 14 13 13 13 13 13 13 12 10 9 10 10 10 10 7 5 3 3 2 1 -0 -0 -0 -0 -0 -0 -1 -1 -2 -2 -2 -2 -3 -3 -3 -2 -1 -1 -1
15 15 14 14 15 15 14 14 13 12 13 12 12 11 10 10 10 10 10 10 8 6 4 3 2 1 0 -0 -0 0 0 -0 -1 -1 -2 -1 -1 -1 -2 -3 -3 -2 -1 -1 -0
15 15 15 14 15 15 15 14 13 12 12 11 11 10 9 10 10 10 10 9 8 6 5 4 3 2 1 0 -0 -0 -0 -0 -1 -1 -2 -1 -0 -1 -2 -3 -3 -3 -2 -1 -0
15 15 15 15 15 15 14 13 12 12 11 11 10 9 9 9 10 10 9 9 8 7 5 4 4 3 2 1 -0 -0 -0 -0 -0 -1 -1 -1 -1 -1 -2 -3 -3 -3 -2 -1 -1
15 15 15 15 15 14 13 11 10 10 9 9 9 9 9 9 9 9 9 8 7 7 5 5 4 4 3 1 -0 -0 -0 0 -0 -0 -0 -0 -1 -2 -2 -3 -3 -3 -2 -2 -1
15 15 15 15 14 13 11 9 8 7 7 8 8 8 8 8 8 8 8 8 7 6 5 5 4 4 3 1 -0 -0 -0 -0 -0 0 0 0 -1 -2 -2 -2 -3 -3 -3 -2 -2
16 15 15 15 14 11 9 7 7 7 7 7 7 7 8 8 8 8 7 7 6 6 5 5 4 3 2 0 -1 -1 -1 -1 -0 0 1 1 -0 -1 -2 -2 -2 -3 -3 -3 -2
16 16 15 14 12 10 8 7 7 7 7 6 7 7 7 7 7 6 7 6 6 5 4 4 3 2 1 -0 -1 -1 -1 -1 -1 -0 0 0 -0 -0 -1 -1 -2 -2 -3 -3 -3
16 16 15 14 11 8 7 7 7 7 6 6 6 7 7 6 6 6 6 6 5 4 4 3 2 1 0 0 -0 -1 -1 -1 -1 -1 -0 -1 -1 -0 -0 -0 -1 -2 -3 -3 -3
16 16 15 13 10 8 7 7 7 6 4 5 6 6 6 5 5 5 5 5 5 4 3 3 2 1 1 1 0 -0 -0 -1 -1 -1 -1 -1 -1 -1 -0 0 -0 -1 -2 -3 -3
16 15 14 12 10 9 8 7 6 4 3 4 5 5 5 4 4 5 5 5 4 4 3 3 2 2 2 1 1 1 0 -1 -1 -1 -1 -1 -1 -1 -0 0 0 -0 -1 -2 -3
15 15 13 12 10 9 8 7 4 2 2 3 4 4 4 4 4 4 5 5 4 3 2 2 2 2 2 2 2 1 0 -0 -1 -1 -1 -1 -1 -0 0 0 -0 -0 -1 -2 -2
14 13 12 11 10 9 8 5 3 1 1 2 3 3 3 3 3 3 4 4 3 2 1 0 0 1 2 2 2 1 0 -1 -1 -1 -1 -1 -0 0 0 0 -0 -0 -1 -1 -1
12 10 8 8 9 8 7 4 2 1 1 2 2 2 2 1 1 2 3 2 2 2 1 -0 -0 0 1 2 2 1 0 -1 -1 -1 -1 -1 -0 0 1 1 0 -0 -1 -1 -1
9 7 6 7 8 8 6 4 4 4 3 2 1 1 0 -0 0 1 1 1 1 1 1 0 -0 -0 0 1 2 1 0 -0 -1 -1 -1 -1 -0 0 1 1 0 -0 -1 -1 -0
7 6 6 8 8 7 6 5 5 5 5 3 2 0 -0 -0 -0 -0 -0 -0 0 0 1 1 -0 -1 -0 1 1 1 0 -0 -1 -1 -1 -1 -0 1 1 1 1 -0 -1 -1 -0
5 5 7 8 7 6 5 5 5 6 5 4 3 1 -0 -1 -1 -1 -1 -0 0 1 1 1 -0 -1 -1 -0 0 1 0 -0 -1 -1 -1 -1 -0 1 1 2 1 -0 -1 -1 -1
4 5 6 7 6 5 5 5 5 5 5 4 3 2 1 -0 -0 -1 -0 0 1 1 1 1 0 -1 -1 -1 -0 -0 -0 -1 -1 -1 -1 -1 -0 1 2 1 0 -1 -2 -2 -2
4 4 5 6 5 4 4 5 5 5 5 4 3 2 1 1 -0 -1 -0 0 1 2 2 2 0 -0 -1 -1 -1 -1 -0 -0 -1 -1 -1 -1 -0 1 1 1 -0 -2 -2 -3 -3
4 3 3 4 4 4 4 4 4 4 4 4 3 2 2 1 -0 -1 -1 -0 1 1 2 2 1 -0 -0 -1 -1 -1 -1 -1 -1 -1 -1 -1 -0 -0 1 0 -1 -2 -3 -3 -3
5 4 4 4 4 4 4 3 3 3 3 3 3 2 1 0 -1 -1 -1 -1 -0 0 1 1 0 -0 -0 -0 -1 -1 -1 -1 -1 -1 -1 -1 -1 -0 0 0 -1 -2 -3 -3 -4
6 5 5 4 3 3 3 3 3 3 3 2 2 1 0 -0 -1 -1 -1 -1 -1 -0 0 0 -0 -0 -0 -0 -0 -0 -0 -1 -1 -1 -1 -1 -1 -1 -0 0 -0 -2 -3 -4 -5